W3MSB Weather Reports


time (UTC)temp
F
wind
direction
speed
knots
gust
knots
rain 1hr
in
rain 24hr
in
rain mn
in
humidity
%
barometer
mb
20260504190849 72 219 7.0 13.9 0.00 0.00 0.00 42 1008.5
20260504190749 72 172 7.0 13.9 0.00 0.00 0.00 42 1008.5
20260504190649 72 184 7.0 13.9 0.00 0.00 0.00 41 1008.5
20260504190549 72 178 7.0 13.9 0.00 0.00 0.00 41 1008.5
20260504190447 72 159 7.8 13.9 0.00 0.00 0.00 42 1008.5
20260504190347 72 161 7.0 13.9 0.00 0.00 0.00 41 1008.6
20260504190248 72 145 7.8 13.9 0.00 0.00 0.00 42 1008.6
20260504190147 72 196 7.8 13.9 0.00 0.00 0.00 42 1008.6
20260504190047 72 161 7.8 13.9 0.00 0.00 0.00 41 1008.6
20260504185947 72 175 7.8 14.8 0.00 0.00 0.00 42 1008.5
20260504185847 72 137 7.8 14.8 0.00 0.00 0.00 41 1008.6
20260504185748 72 144 7.8 14.8 0.00 0.00 0.00 41 1008.6
20260504185647 72 173 7.0 14.8 0.00 0.00 0.00 40 1008.6
20260504185545 72 145 7.0 17.4 0.00 0.00 0.00 41 1008.7
20260504185511 72 141 7.0 17.4 0.00 0.00 0.00 40 1008.7
20260504185502 72 145 7.0 17.4 0.00 0.00 0.00 41 1008.7
20260504185245 72 175 7.0 17.4 0.00 0.00 0.00 42 1008.8
20260504185146 72 201 7.0 17.4 0.00 0.00 0.00 41 1008.8
20260504185046 72 195 7.0 17.4 0.00 0.00 0.00 41 1008.9
20260504184946 72 234 7.0 17.4 0.00 0.00 0.00 42 1008.8
20260504184840 72 174 7.0 17.4 0.00 0.00 0.00 43 1008.8
20260504184739 72 202 7.0 17.4 0.00 0.00 0.00 42 1008.8
20260504184640 72 161 7.8 17.4 0.00 0.00 0.00 41 1008.8
20260504184604 72 183 7.8 17.4 0.00 0.00 0.00 41 1008.9
20260504184555 72 193 7.8 17.4 0.00 0.00 0.00 42 1008.9
20260504184339 72 172 7.8 17.4 0.00 0.00 0.00 41 1008.9
20260504184240 72 182 7.8 17.4 0.00 0.00 0.00 40 1009.0
20260504184200 72 194 8.7 17.4 0.00 0.00 0.00 42 1008.9
20260504184153 72 194 7.8 17.4 0.00 0.00 0.00 42 1008.9
20260504183937 72 167 8.7 17.4 0.00 0.00 0.00 40 1008.9
20260504183837 72 132 8.7 17.4 0.00 0.00 0.00 41 1009.0
20260504183737 72 166 8.7 17.4 0.00 0.00 0.00 40 1008.9
20260504183638 72 166 7.8 17.4 0.00 0.00 0.00 40 1009.0
20260504183535 72 161 7.8 15.6 0.00 0.00 0.00 40 1009.0
20260504183435 72 157 7.0 15.6 0.00 0.00 0.00 41 1009.0
20260504183355 73 158 6.1 15.6 0.00 0.00 0.00 39 1009.0
20260504183347 73 124 7.0 15.6 0.00 0.00 0.00 39 1009.0
20260504183331 73 155 7.0 15.6 0.00 0.00 0.00 39 1009.0
20260504183218 73 157 6.1 15.6 0.00 0.00 0.00 41 1009.0
20260504183207 73 175 7.0 15.6 0.00 0.00 0.00 40 1009.0
20260504182837 73 194 6.1 13.9 0.00 0.00 0.00 40 1009.0
20260504182729 73 162 6.1 13.9 0.00 0.00 0.00 41 1009.0
20260504182630 73 197 6.1 12.2 0.00 0.00 0.00 40 1009.1
20260504182523 73 171 6.1 13.9 0.00 0.00 0.00 42 1009.0
20260504182421 73 175 6.1 13.9 0.00 0.00 0.00 40 1009.1
20260504182322 73 214 6.1 13.9 0.00 0.00 0.00 40 1009.1
20260504182222 73 159 6.1 13.9 0.00 0.00 0.00 41 1009.1
20260504182121 73 155 6.1 13.9 0.00 0.00 0.00 41 1009.1
20260504182023 73 142 5.2 13.9 0.00 0.00 0.00 39 1009.2
20260504181921 73 171 5.2 13.9 0.00 0.00 0.00 39 1009.2
20260504181822 73 151 5.2 13.9 0.00 0.00 0.00 41 1009.2
20260504181720 73 155 5.2 13.9 0.00 0.00 0.00 42 1009.2
20260504181641 72 161 5.2 13.0 0.00 0.00 0.00 42 1009.2
20260504181634 72 169 5.2 13.0 0.00 0.00 0.00 41 1009.3
20260504181418 72 240 5.2 12.2 0.00 0.00 0.00 39 1009.2
20260504181342 72 198 5.2 12.2 0.00 0.00 0.00 40 1009.2
20260504181333 72 240 5.2 12.2 0.00 0.00 0.00 40 1009.2
20260504181118 72 215 4.3 12.2 0.00 0.00 0.00 41 1009.3
20260504181020 72 205 5.2 12.2 0.00 0.00 0.00 43 1009.3
20260504180920 72 221 5.2 12.2 0.00 0.00 0.00 44 1009.3
20260504180821 72 236 5.2 12.2 0.00 0.00 0.00 42 1009.3
20260504180720 72 232 5.2 12.2 0.00 0.00 0.00 40 1009.4
20260504180616 72 238 5.2 12.2 0.00 0.00 0.00 41 1009.3
20260504180515 72 177 5.2 11.3 0.00 0.00 0.00 42 1009.3
20260504180416 72 199 5.2 11.3 0.00 0.00 0.00 41 1009.4
20260504180403 72 236 5.2 13.0 0.00 0.00 0.00 40 1009.4
20260504180352 72 213 5.2 13.0 0.00 0.00 0.00 41 1009.4
20260504180232 72 194 5.2 13.0 0.00 0.00 0.00 40 1009.4
20260504180015 72 209 5.2 13.0 0.00 0.00 0.00 39 1009.5
20260504175914 72 185 6.1 13.0 0.00 0.00 0.00 39 1009.5
20260504175816 72 184 5.2 13.0 0.00 0.00 0.00 40 1009.5
20260504175715 72 192 6.1 13.0 0.00 0.00 0.00 39 1009.5
20260504175616 72 196 6.1 13.0 0.00 0.00 0.00 39 1009.5
20260504175510 72 155 6.1 13.0 0.00 0.00 0.00 40 1009.5
20260504175411 72 193 7.0 13.0 0.00 0.00 0.00 40 1009.6
20260504175312 72 148 7.0 13.0 0.00 0.00 0.00 43 1009.6
20260504175211 72 167 7.0 13.0 0.00 0.00 0.00 42 1009.6
20260504175111 72 240 7.0 13.0 0.00 0.00 0.00 41 1009.6
20260504175011 72 218 7.0 13.0 0.00 0.00 0.00 40 1009.7
20260504174952 72 227 7.0 13.0 0.00 0.00 0.00 40 1009.5
20260504174947 72 217 6.1 13.0 0.00 0.00 0.00 41 1009.6
20260504174937 72 224 7.0 13.0 0.00 0.00 0.00 41 1009.7
20260504174607 73 207 6.1 13.0 0.00 0.00 0.00 39 1009.6
20260504174508 73 173 5.2 13.0 0.00 0.00 0.00 40 1009.6
20260504174407 73 198 5.2 13.0 0.00 0.00 0.00 40 1009.6
20260504174307 73 200 4.3 13.9 0.00 0.00 0.00 41 1009.6
20260504174206 73 187 4.3 13.9 0.00 0.00 0.00 41 1009.6
20260504174107 72 167 4.3 13.9 0.00 0.00 0.00 42 1009.6
20260504174008 72 224 4.3 13.9 0.00 0.00 0.00 42 1009.6
20260504173948 72 188 5.2 13.9 0.00 0.00 0.00 44 1009.7
20260504173936 72 213 4.3 13.9 0.00 0.00 0.00 40 1009.6
20260504173817 72 252 5.2 13.9 0.00 0.00 0.00 40 1009.6
20260504173627 72 200 7.0 13.9 0.00 0.00 0.00 42 1009.7
20260504173619 72 253 6.1 13.9 0.00 0.00 0.00 44 1009.6
20260504173403 72 241 7.0 13.9 0.00 0.00 0.00 45 1009.7
20260504173303 72 155 7.0 13.9 0.00 0.00 0.00 42 1009.8
20260504173204 71 172 6.1 13.9 0.00 0.00 0.00 40 1009.7
20260504173100 71 182 6.1 13.9 0.00 0.00 0.00 41 1009.7
20260504173001 72 105 6.1 13.9 0.00 0.00 0.00 43 1009.7
20260504172901 72 173 5.2 13.9 0.00 0.00 0.00 40 1009.7
20260504172759 72 186 5.2 13.9 0.00 0.00 0.00 41 1009.8
20260504172659 72 163 5.2 13.9 0.00 0.00 0.00 42 1009.7
20260504172558 72 148 5.2 13.9 0.00 0.00 0.00 41 1009.7
20260504172542 71 185 5.2 13.0 0.00 0.00 0.00 47 1009.9
20260504172531 72 138 5.2 13.9 0.00 0.00 0.00 42 1009.8
20260504172412 71 171 5.2 13.0 0.00 0.00 0.00 41 1009.8
20260504172155 71 225 5.2 13.0 0.00 0.00 0.00 46 1009.8
20260504172055 71 325 6.1 13.0 0.00 0.00 0.00 49 1009.8
20260504171955 71 264 7.0 14.8 0.00 0.00 0.00 41 1009.8
20260504171855 71 280 7.0 14.8 0.00 0.00 0.00 41 1009.9
20260504171755 71 249 7.0 14.8 0.00 0.00 0.00 40 1009.9
20260504171655 71 236 7.0 14.8 0.00 0.00 0.00 40 1009.9
20260504171555 71 194 7.0 14.8 0.00 0.00 0.00 42 1010.0
20260504171452 71 194 7.0 14.8 0.00 0.00 0.00 41 1010.0
20260504171416 71 157 7.0 14.8 0.00 0.00 0.00 42 1009.9
20260504171408 71 213 7.0 14.8 0.00 0.00 0.00 42 1010.0
20260504171152 71 158 7.0 14.8 0.00 0.00 0.00 43 1009.9
20260504171051 71 156 7.0 14.8 0.00 0.00 0.00 41 1009.9
20260504170951 71 160 6.1 14.8 0.00 0.00 0.00 43 1009.9
20260504170851 71 128 7.0 14.8 0.00 0.00 0.00 42 1009.9
20260504170752 71 204 7.0 14.8 0.00 0.00 0.00 40 1010.0
20260504170648 71 190 7.0 14.8 0.00 0.00 0.00 39 1010.1
20260504170548 71 184 6.1 14.8 0.00 0.00 0.00 41 1010.1
20260504170448 71 223 6.1 14.8 0.00 0.00 0.00 42 1010.1
20260504170347 71 194 6.1 14.8 0.00 0.00 0.00 43 1010.2
20260504170247 71 173 5.2 14.8 0.00 0.00 0.00 44 1010.2
20260504170148 71 218 5.2 14.8 0.00 0.00 0.00 41 1010.2
20260504160419 68 165 6.1 13.0 0.00 0.00 0.00 46 1011.1
20260504160320 68 171 6.1 13.0 0.00 0.00 0.00 44 1011.1
20260504160215 68 227 7.0 13.0 0.00 0.00 0.00 45 1011.0
20260504160116 68 240 7.0 13.0 0.00 0.00 0.00 42 1011.1
20260504150751 66 199 5.2 11.3 0.00 0.00 0.00 42 1011.6
20260504150652 66 178 5.2 11.3 0.00 0.00 0.00 44 1011.6
20260504150548 66 197 5.2 11.3 0.00 0.00 0.00 45 1011.6
20260504150446 66 144 5.2 11.3 0.00 0.00 0.00 47 1011.6
20260504150346 65 165 5.2 11.3 0.00 0.00 0.00 45 1011.6
20260504150311 65 128 5.2 11.3 0.00 0.00 0.00 45 1011.6
20260504150302 65 164 5.2 11.3 0.00 0.00 0.00 44 1011.6
20260504141323 61 190 2.6 10.4 0.00 0.00 0.00 49 1012.0
20260504141223 61 207 1.7 7.8 0.00 0.00 0.00 50 1012.0
20260504141123 61 193 1.7 5.2 0.00 0.00 0.00 51 1012.1
20260504141024 61 156 1.7 4.3 0.00 0.00 0.00 50 1012.0
20260504140920 60 156 1.7 4.3 0.00 0.00 0.00 51 1012.1
20260504140818 60 155 1.7 4.3 0.00 0.00 0.00 54 1012.1
20260504140719 60 150 1.7 4.3 0.00 0.00 0.00 53 1012.1
20260504140619 60 150 1.7 4.3 0.00 0.00 0.00 52 1012.1
20260504140519 60 150 1.7 4.3 0.00 0.00 0.00 53 1012.1
20260504140419 60 150 1.7 4.3 0.00 0.00 0.00 52 1012.2
20260504140318 60 151 1.7 4.3 0.00 0.00 0.00 53 1012.1
20260504140259 59 152 1.7 4.3 0.00 0.00 0.00 53 1012.1
20260504140249 59 152 1.7 4.3 0.00 0.00 0.00 54 1012.1
20260504140129 59 152 1.7 4.3 0.00 0.00 0.00 54 1012.2
20260504130751 53 220 0.9 2.6 0.00 0.00 0.00 61 1012.6
20260504130651 53 212 0.9 4.3 0.00 0.00 0.00 61 1012.6
20260504130552 53 205 0.9 4.3 0.00 0.00 0.00 60 1012.6
20260504130510 53 205 0.9 4.3 0.00 0.00 0.00 62 1012.6
20260504130502 53 205 0.9 4.3 0.00 0.00 0.00 61 1012.7
20260504130247 53 205 0.9 4.3 0.00 0.00 0.00 61 1012.6
20260504130148 52 205 0.9 4.3 0.00 0.00 0.00 63 1012.6
20260504120137 45 207 0.0 0.0 0.00 0.00 0.00 86 1012.8
20260504120132 44 207 0.0 0.0 0.00 0.00 0.00 86 1012.8
20260504120128 45 207 0.0 0.0 0.00 0.00 0.00 86 1012.8
20260504120122 45 207 0.0 0.0 0.00 0.00 0.00 86 1012.8
20260504120108 45 207 0.0 0.0 0.00 0.00 0.00 86 1012.9
20260504110651 36 209 0.0 0.9 0.00 0.00 0.00 83 1012.8
20260504110550 36 209 0.0 0.9 0.00 0.00 0.00 83 1012.8
20260504110452 35 209 0.0 0.9 0.00 0.00 0.00 83 1012.7
20260504110432 35 207 0.0 0.9 0.00 0.00 0.00 84 1012.8
20260504110421 35 209 0.0 0.9 0.00 0.00 0.00 83 1012.8
20260504110302 35 209 0.0 0.9 0.00 0.00 0.00 84 1012.8
20260504110109 35 207 0.0 0.9 0.00 0.00 0.00 84 1012.8
20260504100539 33 201 0.0 1.7 0.00 0.00 0.00 86 1013.0
20260504100436 33 201 0.0 1.7 0.00 0.00 0.00 86 1013.0
20260504100337 33 201 0.0 2.6 0.00 0.00 0.00 86 1013.0
20260504100236 33 201 0.0 2.6 0.00 0.00 0.00 86 1013.0
20260504100135 33 201 0.0 2.6 0.00 0.00 0.00 86 1013.0
20260504082005 34 220 0.0 1.7 0.00 0.00 0.00 87 1013.1
20260504081859 34 220 0.0 0.9 0.00 0.00 0.00 87 1013.2
20260504081759 34 220 0.0 0.0 0.00 0.00 0.00 87 1013.2
20260504081731 34 220 0.0 0.0 0.00 0.00 0.00 87 1013.2
20260504081721 34 220 0.0 0.0 0.00 0.00 0.00 87 1013.2
20260504081603 34 220 0.0 0.0 0.00 0.00 0.00 87 1013.2
20260504081347 34 220 0.0 0.0 0.00 0.00 0.00 87 1013.2
20260504081240 35 220 0.0 1.7 0.00 0.00 0.00 87 1013.2
20260504081216 34 220 0.0 1.7 0.00 0.00 0.00 87 1013.2
20260504081207 34 220 0.0 1.7 0.00 0.00 0.00 87 1013.2
20260504081047 34 220 0.0 1.7 0.00 0.00 0.00 87 1013.2
20260504080826 34 220 0.0 1.7 0.00 0.00 0.00 87 1013.2
20260504080727 34 220 0.0 1.7 0.00 0.00 0.00 87 1013.2
20260504080643 34 220 0.0 1.7 0.00 0.00 0.00 87 1013.2
20260504080635 34 220 0.0 1.7 0.00 0.00 0.00 87 1013.2
20260504080414 34 220 0.0 1.7 0.00 0.00 0.00 87 1013.2
20260504080315 34 220 0.0 1.7 0.00 0.00 0.00 87 1013.1
20260504080209 34 220 0.9 1.7 0.00 0.00 0.00 87 1013.1
20260504080109 34 220 0.9 1.7 0.00 0.00 0.00 87 1013.1
20260504070321 36 220 1.7 2.6 0.00 0.00 0.00 87 1013.1
20260504070221 36 220 1.7 2.6 0.00 0.00 0.00 87 1013.1
20260504070115 36 220 1.7 2.6 0.00 0.00 0.00 87 1013.1
20260504060242 37 229 0.9 2.6 0.00 0.00 0.00 83 1013.0
20260504050751 40 230 2.6 4.3 0.00 0.00 0.00 78 1013.1
20260504050707 40 230 2.6 4.3 0.00 0.00 0.00 78 1013.1
20260504050701 40 230 2.6 4.3 0.00 0.00 0.00 78 1013.1
20260504050445 41 230 2.6 4.3 0.00 0.00 0.00 78 1013.2
20260504050339 41 229 2.6 4.3 0.00 0.00 0.00 78 1013.2
20260504050239 41 240 1.7 4.3 0.00 0.00 0.00 78 1013.1
20260504050133 41 240 1.7 4.3 0.00 0.00 0.00 78 1013.2
20260504045926 41 240 1.7 4.3 0.00 0.00 0.00 78 1013.2
20260504045906 41 240 1.7 4.3 0.00 0.00 0.00 77 1013.2
20260504045901 41 242 1.7 3.5 0.00 0.00 0.00 76 1013.2
20260504045851 41 240 1.7 4.3 0.00 0.00 0.00 77 1013.2
20260504045514 41 242 1.7 3.5 0.00 0.00 0.00 76 1013.2
20260504045415 41 242 1.7 3.5 0.00 0.00 0.00 76 1013.2
20260504045309 42 242 1.7 3.5 0.00 0.00 0.00 76 1013.2
20260504045227 42 242 1.7 3.5 0.00 0.00 0.00 75 1013.2
20260504045219 42 242 1.7 3.5 0.00 0.00 0.00 76 1013.2
20260504045003 42 242 1.7 3.5 0.00 0.00 0.00 75 1013.1
20260504044856 42 242 2.6 3.5 0.00 0.00 0.00 74 1013.1
20260504044757 42 242 2.6 3.5 0.00 0.00 0.00 74 1013.1
20260504044650 42 242 2.6 3.5 0.00 0.00 0.00 74 1013.2
20260504044551 42 242 2.6 3.5 0.00 0.00 0.00 74 1013.2
20260504044445 42 242 2.6 3.5 0.00 0.00 0.00 74 1013.2
20260504044345 42 242 2.6 3.5 0.00 0.00 0.00 73 1013.2
20260504044239 42 242 2.6 3.5 0.00 0.00 0.00 73 1013.2
20260504044139 42 242 2.6 3.5 0.00 0.00 0.00 73 1013.2
20260504044056 42 242 2.6 3.5 0.00 0.00 0.00 73 1013.2
20260504044047 42 242 2.6 3.5 0.00 0.00 0.00 73 1013.3
20260504043828 43 242 1.7 3.5 0.00 0.00 0.00 72 1013.2
20260504043727 43 242 1.7 3.5 0.00 0.00 0.00 72 1013.2
20260504043620 43 242 1.7 3.5 0.00 0.00 0.00 72 1013.1
20260504043521 43 242 1.7 3.5 0.00 0.00 0.00 72 1013.2
20260504043416 43 242 1.7 3.5 0.00 0.00 0.00 72 1013.1
20260504043315 43 242 1.7 3.5 0.00 0.00 0.00 72 1013.1
20260504043210 43 242 1.7 3.5 0.00 0.00 0.00 72 1013.1
20260504043126 43 242 0.9 2.6 0.00 0.00 0.00 73 1013.1
20260504043119 43 242 0.9 2.6 0.00 0.00 0.00 73 1013.1
20260504042903 43 242 0.9 2.6 0.00 0.00 0.00 73 1013.1
20260504042757 43 242 0.9 1.7 0.00 0.00 0.00 73 1013.1
20260504042656 43 242 0.9 5.2 0.00 0.00 0.00 73 1013.1
20260504042551 43 242 0.9 5.2 0.00 0.00 0.00 73 1013.1
20260504042451 43 242 0.9 5.2 0.00 0.00 0.00 73 1013.1
20260504042345 43 242 0.9 5.2 0.00 0.00 0.00 72 1013.1
20260504042245 44 242 0.9 5.2 0.00 0.00 0.00 71 1013.1
20260504042140 44 242 0.9 5.2 0.00 0.00 0.00 70 1013.1
20260504042056 44 242 1.7 5.2 0.00 0.00 0.00 69 1013.1
20260504042049 44 242 0.9 5.2 0.00 0.00 0.00 69 1013.1
20260504041832 44 242 1.7 5.2 0.00 0.00 0.00 68 1013.0
20260504041749 44 242 1.7 5.2 0.00 0.00 0.00 67 1013.0
20260504041742 44 242 1.7 5.2 0.00 0.00 0.00 67 1013.0
20260504041520 44 242 2.6 5.2 0.00 0.00 0.00 67 1013.0
20260504041421 44 242 2.6 5.2 0.00 0.00 0.00 67 1013.0
20260504041315 44 242 2.6 5.2 0.00 0.00 0.00 67 1013.1
20260504041215 44 243 2.6 5.2 0.00 0.00 0.00 67 1013.1
20260504041109 44 243 2.6 5.2 0.00 0.00 0.00 66 1013.0
20260504041008 44 244 2.6 5.2 0.00 0.00 0.00 66 1013.1
20260504040903 44 244 2.6 6.1 0.00 0.00 0.00 65 1013.1
20260504040802 44 244 3.5 6.1 0.00 0.00 0.00 65 1013.1
20260504040656 44 219 3.5 6.1 0.00 0.00 0.00 65 1013.1
20260504040556 44 213 3.5 6.1 0.00 0.00 0.00 65 1013.1
20260504040449 44 213 3.5 6.1 0.00 0.00 0.00 65 1013.1
20260504040350 45 212 3.5 6.1 0.00 0.00 0.00 65 1013.1
20260504040245 45 212 3.5 6.1 0.00 0.00 0.00 65 1013.1
20260504040144 45 211 3.5 6.1 0.00 0.00 0.00 65 1013.1
20260504040039 45 210 3.5 6.1 0.00 0.00 0.00 65 1013.1
20260504035938 45 209 3.5 6.1 0.00 0.00 0.00 65 1013.1
20260504035832 45 211 3.5 6.1 0.00 0.00 0.00 65 1013.1
20260504035732 45 211 3.5 6.1 0.00 0.00 0.00 65 1013.1
20260504035626 45 211 3.5 6.1 0.00 0.00 0.00 65 1013.0
20260504035526 45 212 3.5 6.1 0.00 0.00 0.00 65 1013.1
20260504035421 45 211 3.5 6.1 0.00 0.00 0.00 65 1013.1
20260504035320 45 209 3.5 6.1 0.00 0.00 0.00 65 1013.1
20260504035215 45 209 3.5 6.1 0.00 0.00 0.00 65 1013.0
20260504035114 45 209 3.5 6.1 0.00 0.00 0.00 66 1013.0
20260504035009 45 208 3.5 6.1 0.00 0.00 0.00 66 1013.0
20260504034908 45 209 3.5 5.2 0.00 0.00 0.00 66 1013.0
20260504034803 45 198 2.6 5.2 0.00 0.00 0.00 66 1013.0
20260504034702 45 198 2.6 5.2 0.00 0.00 0.00 67 1013.0
20260504034556 45 194 2.6 5.2 0.00 0.00 0.00 67 1013.0
20260504034456 45 195 2.6 5.2 0.00 0.00 0.00 67 1013.0
20260504034350 45 195 2.6 5.2 0.00 0.00 0.00 67 1013.0
20260504034250 45 196 2.6 5.2 0.00 0.00 0.00 67 1012.9
20260504034145 45 196 3.5 5.2 0.00 0.00 0.00 67 1013.0
20260504034043 45 196 3.5 5.2 0.00 0.00 0.00 68 1012.9
20260504033938 45 196 3.5 5.2 0.00 0.00 0.00 69 1012.9
20260504033854 45 197 3.5 5.2 0.00 0.00 0.00 69 1012.9
20260504033848 45 197 3.5 5.2 0.00 0.00 0.00 69 1012.9
20260504033632 45 198 3.5 5.2 0.00 0.00 0.00 69 1012.9
20260504033527 45 198 3.5 5.2 0.00 0.00 0.00 69 1012.9
20260504033427 45 198 3.5 5.2 0.00 0.00 0.00 68 1012.9
20260504033342 46 198 3.5 5.2 0.00 0.00 0.00 67 1012.9
20260504033335 46 198 3.5 5.2 0.00 0.00 0.00 68 1012.9
20260504033114 46 200 3.5 5.2 0.00 0.00 0.00 66 1012.9
20260504033014 46 200 2.6 5.2 0.00 0.00 0.00 65 1012.9
20260504032908 46 200 2.6 4.3 0.00 0.00 0.00 65 1012.9
20260504032826 46 199 2.6 6.1 0.00 0.00 0.00 65 1012.9
20260504032818 46 200 2.6 6.1 0.00 0.00 0.00 65 1012.9
20260504032602 46 199 2.6 6.1 0.00 0.00 0.00 65 1012.9
20260504032457 46 198 2.6 6.1 0.00 0.00 0.00 65 1012.9
20260504032355 45 198 3.5 6.1 0.00 0.00 0.00 65 1012.9
20260504032250 45 198 3.5 6.1 0.00 0.00 0.00 65 1012.9
20260504032150 45 198 3.5 6.1 0.00 0.00 0.00 66 1012.9
20260504032123 45 200 3.5 6.1 0.00 0.00 0.00 66 1012.9
20260504032118 45 200 3.5 6.1 0.00 0.00 0.00 67 1012.9
20260504032109 45 199 3.5 6.1 0.00 0.00 0.00 66 1012.9
20260504031738 45 198 3.5 6.1 0.00 0.00 0.00 67 1012.8
20260504031632 45 198 3.5 6.1 0.00 0.00 0.00 68 1012.8
20260504031532 45 199 3.5 6.1 0.00 0.00 0.00 68 1012.8
20260504031427 44 200 3.5 6.1 0.00 0.00 0.00 68 1012.8
20260504031325 44 206 3.5 6.1 0.00 0.00 0.00 69 1012.8
20260504031220 44 206 3.5 6.1 0.00 0.00 0.00 69 1012.8
20260504031120 44 207 3.5 6.1 0.00 0.00 0.00 68 1012.8
20260504031037 44 219 3.5 6.1 0.00 0.00 0.00 67 1012.7
20260504031029 44 211 3.5 6.1 0.00 0.00 0.00 67 1012.7
20260504030807 44 227 3.5 6.1 0.00 0.00 0.00 68 1012.7
20260504030708 44 227 3.5 6.1 0.00 0.00 0.00 68 1012.7
20260504030603 44 227 3.5 5.2 0.00 0.00 0.00 68 1012.7
20260504030502 44 229 3.5 5.2 0.00 0.00 0.00 68 1012.7
20260504030356 44 229 3.5 5.2 0.00 0.00 0.00 69 1012.7
20260504030256 44 227 3.5 5.2 0.00 0.00 0.00 69 1012.7
20260504030150 43 225 3.5 5.2 0.00 0.00 0.00 69 1012.7
20260504030050 43 223 3.5 5.2 0.00 0.00 0.00 69 1012.7
20260504030031 43 222 3.5 5.2 0.00 0.00 0.00 69 1012.6
20260504030026 44 215 3.5 5.2 0.00 0.00 0.00 70 1012.7
20260504030017 43 222 3.5 5.2 0.00 0.00 0.00 69 1012.7
20260504025644 44 214 3.5 5.2 0.00 0.00 0.00 70 1012.7
20260504025544 44 215 3.5 5.2 0.00 0.00 0.00 71 1012.7
20260504025442 44 204 3.5 5.2 0.00 0.00 0.00 71 1012.7
20260504025342 44 202 3.5 5.2 0.00 0.00 0.00 71 1012.7
20260504025239 44 204 3.5 5.2 0.00 0.00 0.00 71 1012.7
20260504025140 44 205 3.5 5.2 0.00 0.00 0.00 71 1012.8
20260504025131 44 206 3.5 5.2 0.00 0.00 0.00 70 1012.8
20260504025118 43 205 3.5 5.2 0.00 0.00 0.00 71 1012.7
20260504024959 44 205 3.5 5.2 0.00 0.00 0.00 70 1012.7
20260504024838 44 205 3.5 5.2 0.00 0.00 0.00 70 1012.7
20260504024657 44 209 2.6 5.2 0.00 0.00 0.00 69 1012.7
20260504024652 44 209 2.6 4.3 0.00 0.00 0.00 69 1012.7
20260504024643 44 207 3.5 5.2 0.00 0.00 0.00 69 1012.7
20260504024312 44 210 2.6 4.3 0.00 0.00 0.00 69 1012.7
20260504024205 44 211 2.6 4.3 0.00 0.00 0.00 70 1012.7
20260504024106 44 211 2.6 4.3 0.00 0.00 0.00 70 1012.7
20260504024000 44 213 2.6 4.3 0.00 0.00 0.00 70 1012.8
20260504023900 44 213 2.6 4.3 0.00 0.00 0.00 70 1012.7
20260504023756 44 213 1.7 4.3 0.00 0.00 0.00 69 1012.7
20260504023654 44 213 1.7 3.5 0.00 0.00 0.00 69 1012.7
20260504023548 45 214 1.7 3.5 0.00 0.00 0.00 69 1012.7
20260504023448 45 214 1.7 3.5 0.00 0.00 0.00 69 1012.7
20260504023342 45 214 1.7 3.5 0.00 0.00 0.00 69 1012.7
20260504023241 45 214 1.7 4.3 0.00 0.00 0.00 68 1012.8
20260504023136 45 215 1.7 4.3 0.00 0.00 0.00 68 1012.7
20260504023053 46 215 1.7 4.3 0.00 0.00 0.00 68 1012.8
20260504023049 46 215 1.7 4.3 0.00 0.00 0.00 68 1012.7
20260504023043 45 215 1.7 4.3 0.00 0.00 0.00 68 1012.8
20260504023027 46 215 1.7 4.3 0.00 0.00 0.00 68 1012.8
20260504022757 46 215 1.7 4.3 0.00 0.00 0.00 67 1012.7
20260504022747 46 215 1.7 4.3 0.00 0.00 0.00 67 1012.7
20260504022418 46 215 1.7 4.3 0.00 0.00 0.00 67 1012.7
20260504022312 46 215 2.6 4.3 0.00 0.00 0.00 66 1012.7
20260504022212 46 215 2.6 4.3 0.00 0.00 0.00 66 1012.7
20260504022106 46 215 2.6 4.3 0.00 0.00 0.00 65 1012.7
20260504022006 46 215 2.6 4.3 0.00 0.00 0.00 66 1012.7
20260504021900 46 215 2.6 4.3 0.00 0.00 0.00 67 1012.7
20260504021800 46 215 2.6 5.2 0.00 0.00 0.00 68 1012.8
20260504021655 46 215 2.6 5.2 0.00 0.00 0.00 68 1012.8
20260504021610 46 215 2.6 5.2 0.00 0.00 0.00 67 1012.8
20260504021603 46 215 2.6 5.2 0.00 0.00 0.00 68 1012.7
20260504021348 46 215 2.6 5.2 0.00 0.00 0.00 66 1012.7
20260504021242 46 215 2.6 5.2 0.00 0.00 0.00 63 1012.7
20260504021142 46 217 2.6 5.2 0.00 0.00 0.00 61 1012.7
20260504021036 46 217 2.6 5.2 0.00 0.00 0.00 60 1012.7
20260504020936 46 217 2.6 5.2 0.00 0.00 0.00 60 1012.6
20260504020832 47 217 2.6 5.2 0.00 0.00 0.00 60 1012.7
20260504020730 47 217 2.6 5.2 0.00 0.00 0.00 59 1012.7
20260504020624 47 217 3.5 5.2 0.00 0.00 0.00 59 1012.7
20260504020524 47 217 3.5 5.2 0.00 0.00 0.00 60 1012.8
20260504020418 47 217 3.5 5.2 0.00 0.00 0.00 60 1012.8
20260504020318 47 217 3.5 5.2 0.00 0.00 0.00 60 1012.8
20260504020212 47 217 3.5 5.2 0.00 0.00 0.00 60 1012.8
20260504020112 47 217 3.5 5.2 0.00 0.00 0.00 61 1012.8
20260504020006 47 217 3.5 5.2 0.00 0.00 0.00 61 1012.8
20260504015906 47 218 3.5 5.2 0.00 0.00 0.00 62 1012.8
20260504015759 47 221 3.5 5.2 0.00 0.00 0.00 63 1012.7
20260504015700 47 223 2.6 4.3 0.00 0.00 0.00 62 1012.8
20260504015553 47 226 2.6 4.3 0.00 0.00 0.00 60 1012.7
20260504015454 47 227 2.6 4.3 0.00 0.00 0.00 60 1012.7
20260504015446 47 228 2.6 4.3 0.00 0.00 0.00 59 1012.7
20260504015442 47 227 2.6 4.3 0.00 0.00 0.00 59 1012.7
20260504015429 47 227 2.6 4.3 0.00 0.00 0.00 60 1012.7
20260504015153 47 227 2.6 4.3 0.00 0.00 0.00 59 1012.7
20260504015011 47 229 2.6 4.3 0.00 0.00 0.00 59 1012.7
20260504015001 47 228 2.6 4.3 0.00 0.00 0.00 59 1012.7
20260504014842 47 229 2.6 4.3 0.00 0.00 0.00 59 1012.7
20260504014644 47 229 2.6 4.3 0.00 0.00 0.00 59 1012.7
20260504014636 47 229 2.6 4.3 0.00 0.00 0.00 59 1012.7
20260504014420 47 229 2.6 4.3 0.00 0.00 0.00 60 1012.7
20260504014315 47 229 2.6 4.3 0.00 0.00 0.00 60 1012.6
20260504014213 47 229 2.6 3.5 0.00 0.00 0.00 59 1012.7
20260504014128 47 229 2.6 3.5 0.00 0.00 0.00 58 1012.6
20260504014122 47 229 2.6 3.5 0.00 0.00 0.00 59 1012.6
20260504013902 47 229 2.6 4.3 0.00 0.00 0.00 58 1012.6
20260504013802 48 229 2.6 4.3 0.00 0.00 0.00 58 1012.6
20260504013655 48 229 2.6 4.3 0.00 0.00 0.00 58 1012.5
20260504013613 48 229 2.6 4.3 0.00 0.00 0.00 57 1012.5
20260504013606 48 229 2.6 4.3 0.00 0.00 0.00 58 1012.5
20260504013405 48 230 2.6 4.3 0.00 0.00 0.00 56 1012.5
20260504013359 48 229 2.6 4.3 0.00 0.00 0.00 57 1012.5
20260504013144 48 230 2.6 4.3 0.00 0.00 0.00 56 1012.5
20260504013038 48 230 2.6 4.3 0.00 0.00 0.00 56 1012.5
20260504012938 48 230 2.6 4.3 0.00 0.00 0.00 55 1012.5
20260504012832 49 230 2.6 4.3 0.00 0.00 0.00 55 1012.5
20260504012732 49 230 2.6 4.3 0.00 0.00 0.00 55 1012.5
20260504012626 49 230 2.6 4.3 0.00 0.00 0.00 54 1012.5
20260504012526 49 230 2.6 4.3 0.00 0.00 0.00 54 1012.5
20260504012420 49 230 2.6 4.3 0.00 0.00 0.00 53 1012.5
20260504012320 49 230 2.6 4.3 0.00 0.00 0.00 53 1012.4
20260504012216 49 230 2.6 4.3 0.00 0.00 0.00 52 1012.5
20260504012114 49 230 2.6 4.3 0.00 0.00 0.00 52 1012.4
20260504012009 49 230 2.6 4.3 0.00 0.00 0.00 52 1012.5
20260504011908 49 232 2.6 4.3 0.00 0.00 0.00 52 1012.4
20260504011802 49 232 2.6 4.3 0.00 0.00 0.00 51 1012.4
20260504011720 49 232 2.6 4.3 0.00 0.00 0.00 51 1012.4
20260504011713 49 232 2.6 4.3 0.00 0.00 0.00 51 1012.4
20260504011455 49 229 2.6 4.3 0.00 0.00 0.00 51 1012.4
20260504011350 49 229 2.6 4.3 0.00 0.00 0.00 51 1012.4
20260504011250 49 229 2.6 4.3 0.00 0.00 0.00 51 1012.4
20260504011207 49 226 2.6 4.3 0.00 0.00 0.00 51 1012.4
20260504011200 49 227 2.6 4.3 0.00 0.00 0.00 51 1012.4
20260504010938 49 225 2.6 5.2 0.00 0.00 0.00 50 1012.4
20260504010838 49 225 2.6 5.2 0.00 0.00 0.00 50 1012.3
20260504010732 49 225 2.6 5.2 0.00 0.00 0.00 50 1012.3
20260504010632 50 225 2.6 5.2 0.00 0.00 0.00 50 1012.4
20260504010528 50 225 2.6 5.2 0.00 0.00 0.00 50 1012.3
20260504010444 50 224 2.6 5.2 0.00 0.00 0.00 49 1012.3
20260504010436 50 225 2.6 5.2 0.00 0.00 0.00 49 1012.4
20260504010220 50 224 2.6 5.2 0.00 0.00 0.00 49 1012.3
20260504010114 50 224 2.6 5.2 0.00 0.00 0.00 48 1012.3
20260504010014 50 224 2.6 5.2 0.00 0.00 0.00 48 1012.3
20260504005951 51 223 2.6 5.2 0.00 0.00 0.00 48 1012.4
20260504005946 51 224 2.6 5.2 0.00 0.00 0.00 47 1012.4
20260504005937 50 224 2.6 5.2 0.00 0.00 0.00 48 1012.3
20260504005819 51 223 2.6 5.2 0.00 0.00 0.00 48 1012.4
20260504005813 51 224 2.6 5.2 0.00 0.00 0.00 48 1012.3
20260504005757 51 224 2.6 5.2 0.00 0.00 0.00 48 1012.3
20260504005638 51 224 2.6 5.2 0.00 0.00 0.00 48 1012.3
20260504005150 51 225 2.6 5.2 0.00 0.00 0.00 47 1012.3
20260504005045 52 224 2.6 5.2 0.00 0.00 0.00 47 1012.3
20260504004944 52 225 2.6 5.2 0.00 0.00 0.00 46 1012.3
20260504004838 52 225 2.6 5.2 0.00 0.00 0.00 46 1012.3
20260504004738 52 225 2.6 5.2 0.00 0.00 0.00 46 1012.3
20260504004632 52 242 2.6 5.2 0.00 0.00 0.00 45 1012.3
20260504004532 53 245 2.6 5.2 0.00 0.00 0.00 45 1012.3
20260504004425 53 245 2.6 5.2 0.00 0.00 0.00 45 1012.3
20260504004343 53 246 2.6 5.2 0.00 0.00 0.00 44 1012.3
20260504004336 53 245 2.6 5.2 0.00 0.00 0.00 44 1012.3
20260504004120 53 246 2.6 5.2 0.00 0.00 0.00 44 1012.2
20260504004014 54 246 2.6 5.2 0.00 0.00 0.00 44 1012.2
20260504003913 54 246 2.6 5.2 0.00 0.00 0.00 44 1012.2
20260504003808 54 246 2.6 5.2 0.00 0.00 0.00 44 1012.2
20260504003708 54 246 2.6 5.2 0.00 0.00 0.00 43 1012.2
20260504003604 54 246 2.6 5.2 0.00 0.00 0.00 43 1012.2
20260504003558 55 246 2.6 7.0 0.00 0.00 0.00 43 1012.2
20260504003553 55 246 2.6 7.0 0.00 0.00 0.00 43 1012.1
20260504003542 54 246 2.6 7.0 0.00 0.00 0.00 43 1012.2
20260504003420 55 246 2.6 7.0 0.00 0.00 0.00 43 1012.2
20260504003107 55 248 2.6 7.0 0.00 0.00 0.00 43 1012.1
20260504003100 55 248 2.6 7.0 0.00 0.00 0.00 42 1012.1
20260504002844 55 248 2.6 7.0 0.00 0.00 0.00 43 1012.1
20260504002739 55 249 3.5 7.0 0.00 0.00 0.00 43 1012.1
20260504002638 55 249 3.5 7.0 0.00 0.00 0.00 43 1012.1
20260504002532 56 250 3.5 8.7 0.00 0.00 0.00 42 1012.1
20260504002432 56 247 3.5 8.7 0.00 0.00 0.00 42 1012.1
20260504002326 56 247 3.5 8.7 0.00 0.00 0.00 42 1012.1
20260504002226 56 247 4.3 8.7 0.00 0.00 0.00 42 1012.1
20260504002119 56 249 4.3 8.7 0.00 0.00 0.00 42 1012.1
20260504002021 56 248 4.3 8.7 0.00 0.00 0.00 42 1012.1
20260504001915 56 248 4.3 8.7 0.00 0.00 0.00 42 1012.1
20260504001814 56 249 4.3 8.7 0.00 0.00 0.00 42 1012.1
20260504001709 56 243 4.3 8.7 0.00 0.00 0.00 42 1012.1
20260504001608 56 242 4.3 8.7 0.00 0.00 0.00 41 1012.1
20260504001502 56 258 4.3 9.6 0.00 0.00 0.00 41 1012.0
20260504001402 56 258 4.3 9.6 0.00 0.00 0.00 42 1012.0
20260504001257 56 260 4.3 9.6 0.00 0.00 0.00 41 1012.1
20260504001156 56 228 4.3 9.6 0.00 0.00 0.00 41 1012.0
20260504001051 56 276 4.3 9.6 0.00 0.00 0.00 42 1012.0
20260504000950 56 245 4.3 9.6 0.00 0.00 0.00 41 1012.0
20260504000844 56 254 4.3 9.6 0.00 0.00 0.00 42 1012.0
20260504000744 56 242 4.3 9.6 0.00 0.00 0.00 41 1011.9
20260504000638 56 245 4.3 9.6 0.00 0.00 0.00 41 1011.9
20260504000555 57 236 4.3 9.6 0.00 0.00 0.00 41 1011.9
20260504000548 57 246 4.3 9.6 0.00 0.00 0.00 41 1011.9
20260504000331 57 233 4.3 9.6 0.00 0.00 0.00 41 1011.9
20260504000227 57 233 4.3 9.6 0.00 0.00 0.00 40 1011.9
20260504000127 57 240 4.3 9.6 0.00 0.00 0.00 40 1011.8
20260504000022 57 249 4.3 9.6 0.00 0.00 0.00 41 1011.9
20260503235919 57 258 4.3 9.6 0.00 0.00 0.00 40 1011.8
20260503235814 57 249 4.3 9.6 0.00 0.00 0.00 40 1011.8
20260503235714 57 244 4.3 9.6 0.00 0.00 0.00 40 1011.8
20260503235608 57 252 4.3 9.6 0.00 0.00 0.00 40 1011.8
20260503235525 57 245 4.3 8.7 0.00 0.00 0.00 40 1011.7
20260503235518 57 263 4.3 8.7 0.00 0.00 0.00 39 1011.8
20260503235304 57 247 4.3 8.7 0.00 0.00 0.00 40 1011.7
20260503235219 58 257 5.2 11.3 0.00 0.00 0.00 39 1011.7
20260503235211 58 244 5.2 11.3 0.00 0.00 0.00 39 1011.7
20260503235015 58 242 5.2 11.3 0.00 0.00 0.00 39 1011.7
20260503235007 58 225 5.2 11.3 0.00 0.00 0.00 39 1011.7
20260503234823 58 253 6.1 11.3 0.00 0.00 0.00 39 1011.7
20260503234819 58 252 7.0 11.3 0.00 0.00 0.00 38 1011.7
20260503234810 58 232 6.1 11.3 0.00 0.00 0.00 39 1011.7
20260503234439 58 259 7.0 11.3 0.00 0.00 0.00 38 1011.7
20260503234332 58 251 7.0 11.3 0.00 0.00 0.00 38 1011.6
20260503234250 58 267 7.0 11.3 0.00 0.00 0.00 38 1011.6
20260503234243 58 259 7.0 11.3 0.00 0.00 0.00 38 1011.7
20260503234044 58 300 7.0 14.8 0.00 0.00 0.00 37 1011.6
20260503234036 58 301 7.0 14.8 0.00 0.00 0.00 38 1011.6
20260503233820 58 265 6.1 14.8 0.00 0.00 0.00 37 1011.6
20260503233715 58 240 6.1 14.8 0.00 0.00 0.00 38 1011.6
20260503233632 58 252 6.1 14.8 0.00 0.00 0.00 37 1011.6
20260503233624 58 271 6.1 14.8 0.00 0.00 0.00 37 1011.6
20260503233408 58 249 6.1 14.8 0.00 0.00 0.00 39 1011.6
20260503233302 59 261 6.1 14.8 0.00 0.00 0.00 37 1011.6
20260503233202 59 256 6.1 14.8 0.00 0.00 0.00 37 1011.6
20260503233119 59 254 7.0 14.8 0.00 0.00 0.00 37 1011.6
20260503233111 59 269 7.0 14.8 0.00 0.00 0.00 37 1011.6
20260503232851 59 245 7.0 14.8 0.00 0.00 0.00 37 1011.6
20260503232750 59 280 7.0 14.8 0.00 0.00 0.00 37 1011.6
20260503232644 59 261 7.0 14.8 0.00 0.00 0.00 36 1011.6
20260503232601 59 252 7.0 14.8 0.00 0.00 0.00 37 1011.6
20260503232553 59 244 7.0 14.8 0.00 0.00 0.00 37 1011.6
20260503232338 59 244 7.0 14.8 0.00 0.00 0.00 36 1011.5
20260503232315 59 224 7.0 13.0 0.00 0.00 0.00 36 1011.6
20260503232305 59 188 7.0 14.8 0.00 0.00 0.00 37 1011.6
20260503232144 59 277 7.0 14.8 0.00 0.00 0.00 36 1011.6
20260503231926 59 226 7.0 13.9 0.00 0.00 0.00 36 1011.6
20260503231821 59 325 7.0 13.9 0.00 0.00 0.00 36 1011.5
20260503231720 59 237 7.0 13.9 0.00 0.00 0.00 36 1011.6
20260503231653 59 259 7.0 13.9 0.00 0.00 0.00 37 1011.5
20260503231643 59 248 7.0 13.9 0.00 0.00 0.00 37 1011.6
20260503231523 59 270 7.0 13.9 0.00 0.00 0.00 36 1011.5
20260503231308 59 244 7.0 13.9 0.00 0.00 0.00 37 1011.5
20260503231202 59 260 7.0 13.9 0.00 0.00 0.00 37 1011.5
20260503231102 59 240 7.0 13.9 0.00 0.00 0.00 36 1011.5
20260503230957 60 251 7.8 13.9 0.00 0.00 0.00 36 1011.5
20260503230856 60 257 7.8 13.9 0.00 0.00 0.00 37 1011.6
20260503230828 60 239 7.8 13.9 0.00 0.00 0.00 36 1011.6
20260503230823 60 267 7.8 13.9 0.00 0.00 0.00 35 1011.5
20260503230815 60 267 7.8 13.9 0.00 0.00 0.00 36 1011.6
20260503230444 60 221 7.0 13.9 0.00 0.00 0.00 36 1011.5
20260503230338 60 258 7.0 13.9 0.00 0.00 0.00 35 1011.5
20260503230238 60 221 7.0 16.5 0.00 0.00 0.00 36 1011.6
20260503230133 60 247 7.0 16.5 0.00 0.00 0.00 36 1011.5
20260503230032 60 298 7.0 16.5 0.00 0.00 0.00 35 1011.5
20260503225927 60 202 6.1 16.5 0.00 0.00 0.00 37 1011.6
20260503225826 60 252 6.1 16.5 0.00 0.00 0.00 36 1011.5
20260503225720 60 259 6.1 16.5 0.00 0.00 0.00 36 1011.5
20260503225620 60 248 7.0 16.5 0.00 0.00 0.00 36 1011.5
20260503225515 60 281 7.0 16.5 0.00 0.00 0.00 36 1011.5
20260503225414 60 232 7.0 16.5 0.00 0.00 0.00 35 1011.5
20260503225309 60 235 7.8 16.5 0.00 0.00 0.00 35 1011.5
20260503225208 60 232 7.0 16.5 0.00 0.00 0.00 35 1011.5
20260503225102 60 244 7.0 16.5 0.00 0.00 0.00 35 1011.5
20260503225019 60 278 6.1 16.5 0.00 0.00 0.00 36 1011.6
20260503225012 60 230 7.0 16.5 0.00 0.00 0.00 36 1011.5
20260503224836 60 279 6.1 16.5 0.00 0.00 0.00 35 1011.5
20260503224831 61 240 6.1 16.5 0.00 0.00 0.00 37 1011.5
20260503224821 60 228 6.1 16.5 0.00 0.00 0.00 35 1011.4
20260503224445 61 275 6.1 16.5 0.00 0.00 0.00 36 1011.5
20260503224344 61 277 6.1 16.5 0.00 0.00 0.00 36 1011.5
20260503224238 61 246 6.1 15.6 0.00 0.00 0.00 36 1011.5
20260503224138 61 290 7.0 15.6 0.00 0.00 0.00 36 1011.5
20260503224056 61 329 8.7 15.6 0.00 0.00 0.00 36 1011.5
20260503224048 61 275 7.8 15.6 0.00 0.00 0.00 36 1011.5
20260503223826 61 259 8.7 15.6 0.00 0.00 0.00 35 1011.5
20260503223726 61 259 8.7 15.6 0.00 0.00 0.00 34 1011.5
20260503223621 61 252 8.7 15.6 0.00 0.00 0.00 34 1011.5
20260503223520 61 289 8.7 15.6 0.00 0.00 0.00 36 1011.5
20260503223438 61 260 8.7 15.6 0.00 0.00 0.00 35 1011.5
20260503223431 61 290 8.7 15.6 0.00 0.00 0.00 35 1011.5
20260503223231 61 262 7.8 14.8 0.00 0.00 0.00 34 1011.5
20260503223224 61 261 7.8 14.8 0.00 0.00 0.00 36 1011.5
20260503223002 61 248 7.0 14.8 0.00 0.00 0.00 36 1011.5
20260503222903 61 261 7.0 14.8 0.00 0.00 0.00 36 1011.6
20260503222756 61 302 6.1 11.3 0.00 0.00 0.00 37 1011.6
20260503222656 61 286 6.1 16.5 0.00 0.00 0.00 37 1011.5
20260503222550 61 311 6.1 16.5 0.00 0.00 0.00 35 1011.5
20260503222451 61 279 5.2 16.5 0.00 0.00 0.00 35 1011.5
20260503222427 62 290 7.0 16.5 0.00 0.00 0.00 36 1011.5
20260503222422 62 251 5.2 16.5 0.00 0.00 0.00 37 1011.5
20260503222417 62 286 6.1 16.5 0.00 0.00 0.00 37 1011.5
20260503222408 61 261 5.2 16.5 0.00 0.00 0.00 37 1011.5
20260503222237 62 261 5.2 16.5 0.00 0.00 0.00 36 1011.5
20260503222125 62 329 7.0 16.5 0.00 0.00 0.00 36 1011.5
20260503222114 62 342 5.2 16.5 0.00 0.00 0.00 36 1011.5
20260503221626 62 274 7.8 16.5 0.00 0.00 0.00 35 1011.5
20260503221521 62 259 7.8 16.5 0.00 0.00 0.00 36 1011.5
20260503221420 61 265 7.8 16.5 0.00 0.00 0.00 35 1011.5
20260503221315 61 329 7.8 16.5 0.00 0.00 0.00 35 1011.5
20260503221214 62 324 7.8 16.5 0.00 0.00 0.00 35 1011.5
20260503221131 62 288 7.8 16.5 0.00 0.00 0.00 36 1011.6
20260503221124 62 303 7.8 16.5 0.00 0.00 0.00 35 1011.5
20260503220902 62 325 7.8 16.5 0.00 0.00 0.00 35 1011.5
20260503220819 62 217 7.0 13.9 0.00 0.00 0.00 35 1011.4
20260503220812 62 295 7.0 16.5 0.00 0.00 0.00 35 1011.6
20260503220556 62 258 6.1 13.9 0.00 0.00 0.00 34 1011.5
20260503220451 62 281 6.1 13.9 0.00 0.00 0.00 34 1011.5
20260503220350 62 252 6.1 13.9 0.00 0.00 0.00 34 1011.5
20260503220308 62 273 6.1 13.9 0.00 0.00 0.00 35 1011.6
20260503220301 62 277 6.1 13.9 0.00 0.00 0.00 34 1011.6
20260503220038 62 341 6.1 13.9 0.00 0.00 0.00 36 1011.5
20260503215939 62 277 6.1 13.9 0.00 0.00 0.00 37 1011.6
20260503215832 62 264 6.1 13.9 0.00 0.00 0.00 35 1011.6
20260503215732 62 223 7.0 11.3 0.00 0.00 0.00 35 1011.5
20260503215627 62 228 7.0 17.4 0.00 0.00 0.00 36 1011.6
20260503215526 62 296 7.8 17.4 0.00 0.00 0.00 36 1011.5
20260503215420 62 266 7.8 17.4 0.00 0.00 0.00 37 1011.5
20260503215320 62 269 8.7 17.4 0.00 0.00 0.00 35 1011.5
20260503215214 62 268 8.7 17.4 0.00 0.00 0.00 36 1011.6
20260503215114 62 248 8.7 17.4 0.00 0.00 0.00 36 1011.6
20260503215008 62 245 8.7 17.4 0.00 0.00 0.00 37 1011.5
20260503214908 62 277 8.7 17.4 0.00 0.00 0.00 35 1011.5
20260503214802 62 275 8.7 17.4 0.00 0.00 0.00 35 1011.5
20260503214702 62 243 7.8 19.1 0.00 0.00 0.00 35 1011.6
20260503214557 62 235 7.8 19.1 0.00 0.00 0.00 34 1011.5
20260503214456 62 222 7.0 19.1 0.00 0.00 0.00 35 1011.5
20260503214351 62 259 7.0 19.1 0.00 0.00 0.00 36 1011.6
20260503214251 62 237 7.0 19.1 0.00 0.00 0.00 36 1011.5
20260503214144 62 313 7.0 19.1 0.00 0.00 0.00 35 1011.5
20260503214044 62 276 7.0 19.1 0.00 0.00 0.00 35 1011.5
20260503213938 62 263 7.0 19.1 0.00 0.00 0.00 35 1011.5
20260503213838 62 302 7.8 19.1 0.00 0.00 0.00 35 1011.5
20260503213755 62 238 7.8 19.1 0.00 0.00 0.00 35 1011.6
20260503213748 62 249 7.8 19.1 0.00 0.00 0.00 35 1011.4
20260503213526 62 222 7.8 19.1 0.00 0.00 0.00 35 1011.5
20260503213426 62 225 7.8 19.1 0.00 0.00 0.00 36 1011.5
20260503213320 62 259 8.7 19.1 0.00 0.00 0.00 39 1011.5
20260503213220 62 270 8.7 19.1 0.00 0.00 0.00 38 1011.4
20260503213114 62 243 8.7 19.1 0.00 0.00 0.00 37 1011.4
20260503213014 62 239 9.6 19.1 0.00 0.00 0.00 36 1011.4
20260503212909 62 227 8.7 19.1 0.00 0.00 0.00 36 1011.5
20260503212808 62 306 8.7 19.1 0.00 0.00 0.00 35 1011.5
20260503212724 62 275 7.0 18.2 0.00 0.00 0.00 38 1011.4
20260503212717 62 255 7.8 16.5 0.00 0.00 0.00 36 1011.4
20260503212457 62 296 7.8 18.2 0.00 0.00 0.00 34 1011.4
20260503212356 62 245 7.8 18.2 0.00 0.00 0.00 36 1011.5
20260503212250 62 263 7.0 18.2 0.00 0.00 0.00 35 1011.5
20260503212208 62 286 7.8 18.2 0.00 0.00 0.00 37 1011.5
20260503212201 62 331 7.0 18.2 0.00 0.00 0.00 35 1011.5
20260503211944 62 276 7.8 18.2 0.00 0.00 0.00 35 1011.5
20260503211839 62 223 7.8 18.2 0.00 0.00 0.00 36 1011.4
20260503211738 62 286 8.7 18.2 0.00 0.00 0.00 37 1011.4
20260503211655 62 248 8.7 18.2 0.00 0.00 0.00 36 1011.4
20260503211647 62 269 8.7 18.2 0.00 0.00 0.00 36 1011.5
20260503211426 62 290 8.7 18.2 0.00 0.00 0.00 36 1011.4
20260503211326 62 308 8.7 18.2 0.00 0.00 0.00 36 1011.4
20260503211220 62 198 8.7 18.2 0.00 0.00 0.00 36 1011.5
20260503211119 62 265 8.7 18.2 0.00 0.00 0.00 36 1011.4
20260503211014 62 257 9.6 18.2 0.00 0.00 0.00 37 1011.5
20260503210914 62 275 9.6 18.2 0.00 0.00 0.00 38 1011.4
20260503210808 62 276 9.6 18.2 0.00 0.00 0.00 35 1011.4
20260503210725 62 257 8.7 17.4 0.00 0.00 0.00 36 1011.4
20260503210718 62 263 9.6 18.2 0.00 0.00 0.00 36 1011.5
20260503210503 62 279 8.7 17.4 0.00 0.00 0.00 34 1011.4
20260503210357 62 252 8.7 17.4 0.00 0.00 0.00 36 1011.4
20260503210256 62 275 7.8 21.7 0.00 0.00 0.00 35 1011.5
20260503210151 62 271 7.8 21.7 0.00 0.00 0.00 37 1011.6
20260503210050 62 291 7.8 21.7 0.00 0.00 0.00 37 1011.6
20260503205945 62 318 7.0 21.7 0.00 0.00 0.00 39 1011.6
20260503205844 62 0 7.0 21.7 0.00 0.00 0.00 39 1011.5
20260503205738 61 329 7.0 21.7 0.00 0.00 0.00 38 1011.5
20260503205638 61 271 7.8 21.7 0.00 0.00 0.00 37 1011.4
20260503205532 61 233 7.8 21.7 0.00 0.00 0.00 36 1011.4
20260503205434 61 276 8.7 21.7 0.00 0.00 0.00 35 1011.5
20260503205427 62 248 8.7 21.7 0.00 0.00 0.00 36 1011.5
20260503205423 62 258 9.6 21.7 0.00 0.00 0.00 35 1011.5
20260503205410 61 281 9.6 21.7 0.00 0.00 0.00 36 1011.5
20260503205251 61 281 9.6 21.7 0.00 0.00 0.00 35 1011.5
20260503204915 62 199 8.7 21.7 0.00 0.00 0.00 37 1011.5
20260503204814 61 275 8.7 21.7 0.00 0.00 0.00 37 1011.5
20260503204708 61 260 8.7 21.7 0.00 0.00 0.00 36 1011.5
20260503204608 61 266 8.7 21.7 0.00 0.00 0.00 35 1011.5
20260503204502 61 238 9.6 21.7 0.00 0.00 0.00 37 1011.5
20260503204420 62 275 7.8 18.2 0.00 0.00 0.00 36 1011.5
20260503204412 62 260 8.7 21.7 0.00 0.00 0.00 37 1011.6
20260503204156 62 230 7.8 15.6 0.00 0.00 0.00 37 1011.5
20260503204051 62 306 7.8 15.6 0.00 0.00 0.00 36 1011.4
20260503203949 61 284 7.8 16.5 0.00 0.00 0.00 37 1011.4
20260503203908 61 269 8.7 17.4 0.00 0.00 0.00 37 1011.4
20260503203859 61 269 7.8 16.5 0.00 0.00 0.00 38 1011.4
20260503203701 61 291 7.8 17.4 0.00 0.00 0.00 38 1011.5
20260503203653 61 306 8.7 17.4 0.00 0.00 0.00 36 1011.5
20260503203432 61 309 8.7 17.4 0.00 0.00 0.00 37 1011.5
20260503203332 61 277 8.7 17.4 0.00 0.00 0.00 37 1011.4
20260503203227 61 269 8.7 17.4 0.00 0.00 0.00 37 1011.4
20260503203126 60 259 7.8 17.4 0.00 0.00 0.00 38 1011.5
20260503203021 60 292 7.0 17.4 0.00 0.00 0.00 36 1011.6
20260503202920 60 273 7.8 17.4 0.00 0.00 0.00 37 1011.5
20260503202837 61 255 8.7 18.2 0.00 0.00 0.00 36 1011.5
20260503202830 60 268 7.8 17.4 0.00 0.00 0.00 36 1011.5
20260503202632 61 221 7.8 18.2 0.00 0.00 0.00 35 1011.5
20260503202625 61 234 7.8 18.2 0.00 0.00 0.00 35 1011.5
20260503202402 61 215 8.7 18.2 0.00 0.00 0.00 36 1011.5
20260503202304 61 252 8.7 18.2 0.00 0.00 0.00 36 1011.6
20260503202219 61 303 9.6 18.2 0.00 0.00 0.00 36 1011.6
20260503202211 61 276 9.6 18.2 0.00 0.00 0.00 37 1011.6
20260503201950 61 279 10.4 18.2 0.00 0.00 0.00 36 1011.7
20260503201850 61 282 10.4 18.2 0.00 0.00 0.00 36 1011.7
20260503201745 61 257 9.6 17.4 0.00 0.00 0.00 36 1011.8
20260503201644 61 257 8.7 17.4 0.00 0.00 0.00 36 1011.7
20260503201538 61 288 8.7 17.4 0.00 0.00 0.00 36 1011.6
20260503201438 61 269 7.8 17.4 0.00 0.00 0.00 36 1011.8
20260503201332 61 306 7.8 16.5 0.00 0.00 0.00 37 1011.7
20260503201232 61 193 7.8 16.5 0.00 0.00 0.00 36 1011.7
20260503201127 61 261 7.8 15.6 0.00 0.00 0.00 37 1011.7
20260503201026 61 245 7.8 16.5 0.00 0.00 0.00 37 1011.6
20260503200943 61 324 7.8 16.5 0.00 0.00 0.00 36 1011.7
20260503200936 61 324 7.8 16.5 0.00 0.00 0.00 38 1011.6
20260503200714 61 304 8.7 16.5 0.00 0.00 0.00 37 1011.7
20260503200614 61 293 7.8 16.5 0.00 0.00 0.00 37 1011.8
20260503200509 61 266 7.8 16.5 0.00 0.00 0.00 37 1011.8
20260503200408 61 273 7.8 16.5 0.00 0.00 0.00 36 1011.7
20260503200303 61 311 7.8 16.5 0.00 0.00 0.00 36 1011.8
20260503200202 61 298 7.8 16.5 0.00 0.00 0.00 39 1011.7
20260503200056 61 280 7.8 16.5 0.00 0.00 0.00 36 1011.9
20260503200015 61 309 8.7 16.5 0.00 0.00 0.00 35 1011.8
20260503200008 61 291 7.8 16.5 0.00 0.00 0.00 36 1011.9
20260503195952 61 285 7.8 16.5 0.00 0.00 0.00 36 1011.8
20260503195833 61 277 7.0 16.5 0.00 0.00 0.00 36 1011.8
20260503195719 61 294 8.7 16.5 0.00 0.00 0.00 34 1011.8
20260503195709 61 290 7.0 16.5 0.00 0.00 0.00 36 1011.8
20260503195338 61 244 7.8 16.5 0.00 0.00 0.00 35 1011.8
20260503195255 61 244 7.0 20.0 0.00 0.00 0.00 38 1011.8
20260503195247 61 255 7.8 16.5 0.00 0.00 0.00 36 1011.8
20260503195026 61 287 7.0 20.0 0.00 0.00 0.00 35 1011.8
20260503194926 61 176 7.0 20.0 0.00 0.00 0.00 34 1011.9
20260503194820 62 240 7.0 20.0 0.00 0.00 0.00 35 1012.0
20260503194720 62 248 7.0 20.0 0.00 0.00 0.00 35 1011.9
20260503194615 62 249 7.0 20.0 0.00 0.00 0.00 37 1011.9
20260503194514 62 294 7.0 20.0 0.00 0.00 0.00 41 1012.0
20260503194450 61 257 7.8 20.0 0.00 0.00 0.00 37 1012.0
20260503194444 61 244 7.8 20.0 0.00 0.00 0.00 40 1012.0
20260503194434 61 273 7.0 20.0 0.00 0.00 0.00 37 1011.9
20260503194102 61 271 8.7 20.0 0.00 0.00 0.00 38 1011.9
20260503194018 61 233 9.6 20.0 0.00 0.00 0.00 39 1011.9
20260503194011 61 275 9.6 20.0 0.00 0.00 0.00 37 1011.9
20260503193750 60 273 9.6 20.0 0.00 0.00 0.00 35 1012.0
20260503193650 61 217 10.4 20.0 0.00 0.00 0.00 35 1012.0
20260503193544 61 259 10.4 20.0 0.00 0.00 0.00 35 1012.1
20260503193444 61 230 9.6 20.0 0.00 0.00 0.00 41 1012.1
20260503193339 61 242 9.6 20.0 0.00 0.00 0.00 41 1012.1
20260503193238 60 298 8.7 20.0 0.00 0.00 0.00 37 1012.0
20260503193132 60 279 7.8 17.4 0.00 0.00 0.00 36 1011.9
20260503193050 61 227 8.7 17.4 0.00 0.00 0.00 34 1012.0
20260503193043 61 238 8.7 17.4 0.00 0.00 0.00 36 1012.1
20260503192826 61 243 8.7 17.4 0.00 0.00 0.00 36 1012.0
20260503192720 61 244 7.8 17.4 0.00 0.00 0.00 37 1012.0
20260503192621 61 257 8.7 17.4 0.00 0.00 0.00 37 1012.1
20260503192541 61 279 8.7 17.4 0.00 0.00 0.00 40 1012.2
20260503192536 61 319 8.7 17.4 0.00 0.00 0.00 37 1012.2
20260503192529 61 315 8.7 17.4 0.00 0.00 0.00 41 1012.1
20260503192514 61 309 8.7 17.4 0.00 0.00 0.00 38 1012.0
20260503192239 61 277 9.6 17.4 0.00 0.00 0.00 38 1012.1
20260503192119 61 276 9.6 17.4 0.00 0.00 0.00 40 1012.3
20260503191856 60 242 8.7 17.4 0.00 0.00 0.00 40 1012.2
20260503191813 60 270 9.6 17.4 0.00 0.00 0.00 36 1012.2
20260503191806 60 306 8.7 17.4 0.00 0.00 0.00 38 1012.2
20260503191550 60 281 8.7 17.4 0.00 0.00 0.00 37 1012.2
20260503191444 60 261 8.7 15.6 0.00 0.00 0.00 39 1012.3
20260503191344 60 320 8.7 15.6 0.00 0.00 0.00 37 1012.3
20260503191317 60 279 8.7 15.6 0.00 0.00 0.00 36 1012.2
20260503191311 60 331 8.7 15.6 0.00 0.00 0.00 36 1012.3
20260503191303 60 333 8.7 15.6 0.00 0.00 0.00 37 1012.2